Location: Grasslands National Park East Block
(49.0708°N, 106.5295°W)
Time: 16:35:05
(UTC-06:00)

Daily predictions for brighter satellites

Satellite Brightness Start Highest point End
(mag) Time Altitude Azimuth Time Altitude Azimuth Time Altitude Azimuth
Cosmos 1140 Rocket 3.6 20:37:19 10° NNW 20:42:34 86° WSW 20:47:50 10° SSE
NOSS 3-1 (C) 3.7 20:36:47 10° SW 20:42:41 82° NW 20:49:26 10° NE
Cosmos 1697 Rocket 3.4 20:37:45 10° SW 20:43:20 63° WNW 20:48:57 10° NNE
Spot 2 Rocket 3.7 20:42:41 10° SSE 20:47:47 78° WSW 20:52:55 10° NNW
Cosmos 614 Rocket 4.0 20:43:04 10° NNW 20:48:12 88° WSW 20:53:21 10° SSE
CZ-4B DEB 4.0 20:48:45 10° ESE 20:51:03 22° ENE 20:53:22 10° NNE
Atlas Centaur 2 4.4 20:47:07 10° SW 20:52:11 18° S 20:56:51 10° SE
ERBS 2.4 20:48:48 10° SW 20:52:13 58° SE 20:55:39 10° ENE
USA 215 4.1 20:47:31 10° ENE 20:53:49 52° NNW 21:00:07 10° W
Cosmos 1536 Rocket 3.5 20:50:16 10° N 20:54:36 71° ENE 20:58:55 10° SSE
Cosmos 2026 Rocket 4.3 20:51:11 10° SSW 20:57:31 77° W 21:03:57 10° N
Meteor 1-29 4.5 20:55:43 10° NE 20:58:12 18° E 21:00:39 10° SE
USA 238 DEB 4.3 20:52:43 10° NW 20:59:34 49° NE 21:06:28 10° ESE
USA 238 4.3 20:52:49 10° NW 20:59:40 49° NE 21:06:33 10° ESE
Helios 1A 3.2 20:59:24 10° SSE 21:03:34 59° ENE 21:07:46 10° N
USA 186 3.3 21:03:45 10° S 21:06:56 40° W 21:10:10 10° NNW
Cosmos 1741 Rocket 4.0 21:02:29 10° NNW 21:07:46 87° ENE 21:13:02 10° SSE
Cosmos 1655 Rocket 4.2 21:01:51 10° S 21:08:09 82° W 21:14:33 10° N
Cosmos 1602 3.8 21:07:26 10° SSW 21:11:17 81° W 21:15:09 10° N
ERS-1 Rocket 3.4 21:06:35 10° SE 21:11:21 46° ENE 21:16:09 10° N
Okean 2 Rocket 4.3 21:09:21 10° SSW 21:13:42 47° WNW 21:18:07 10° N
H-2A R/B 3.2 21:10:30 11° ESE 21:14:17 26° ENE 21:18:20 10° N
Abrixas rocket 2.1 21:13:21 10° W 21:16:38 80° S 21:19:36 12° E
Envisat 3.7 21:11:58 10° S 21:16:57 57° W 21:21:59 10° NNW
Meteor 1-11 Rocket 3.8 21:13:31 10° S 21:19:21 78° E 21:25:05 10° NNE
ATLAS 3B R/B 2.9 21:12:55 10° NW 21:19:44 63° NE 21:25:20 14° ESE
EXPRESS MD2 3.4 21:17:44 10° SW 21:20:30 45° SSE 21:25:27 10° ENE
SL-8 R/B 3.7 21:18:32 10° W 21:23:19 79° S 21:27:23 14° ESE
NOSS 2-3 (D) 4.1 21:26:12 10° SSW 21:30:46 48° ESE 21:36:08 10° NE
Cosmos 2278 Rocket 4.0 21:26:48 10° N 21:30:48 19° NE 21:34:47 10° E
ARGOS 3.4 21:27:17 14° SE 21:31:40 51° ENE 21:36:52 10° N
Terra 3.6 21:29:05 12° E 21:31:41 18° ENE 21:34:49 10° NNE
Cosmos 2263 Rocket 2.4 21:26:26 10° NNW 21:32:08 72° WSW 21:37:35 11° SSE
Cosmos 883 Rocket 4.4 21:27:41 10° N 21:33:52 85° E 21:40:01 10° S
Cosmos 2322 Rocket 2.2 21:30:55 10° SSW 21:36:37 81° ESE 21:42:21 10° NNE
Cosmos 1939 Rocket 4.1 21:34:09 10° SSW 21:37:54 40° W 21:41:38 10° NNW
Meteor 1-23 Rocket 4.2 21:33:32 10° NNW 21:39:08 84° W 21:44:43 10° S
Cosmos 1844 Rocket 3.5 21:34:37 10° NNW 21:39:56 39° NE 21:43:39 18° ESE
Cosmos 1515 4.0 21:37:03 10° N 21:40:46 49° ENE 21:42:54 23° SE
Cosmos 1536 3.0 21:40:23 10° SSW 21:44:27 74° W 21:48:33 10° N
Cosmos 1110 Rocket 4.3 21:40:31 10° S 21:45:23 44° ESE 21:50:18 10° NE
YAOGAN 6 3.8 21:43:59 10° SSW 21:47:19 39° W 21:50:40 10° NNW
SL-16 R/B 2.2 21:41:43 10° SSW 21:47:24 86° WNW 21:53:08 10° NNE
Helios 1B rocket 2.5 21:49:29 10° NNE 21:53:37 82° WNW 21:57:43 10° SSW
Cosmos 1238 Rocket 4.2 21:49:21 10° N 21:56:04 60° ENE 22:00:28 21° SSE
Cosmos 2322 4.0 21:51:29 10° S 21:56:47 43° ESE 22:02:07 10° NE
ATLAS 2AS CENTAUR R/B 3.0 21:49:43 10° SSW 21:57:22 64° ESE 22:05:23 10° NE
Cosmos 2219 Rocket 3.8 21:57:52 16° E 21:57:52 16° E 22:00:40 10° ENE
Tiangong 1 3.0 21:56:02 10° SW 21:57:21 14° SSW 21:57:21 14° SSW
Okean 1 Rocket 3.1 21:54:06 10° SSW 21:58:27 78° WNW 22:02:52 10° N
Cosmos 1331 Rocket 4.1 21:55:19 10° S 22:00:20 52° ESE 22:05:26 10° NNE
Cosmos 1500 3.6 21:59:14 31° SE 22:00:37 44° E 22:04:20 10° NNE
Okean 1-7 Rocket 3.7 21:56:14 10° NNW 22:00:43 78° W 22:04:02 18° S
Resurs 01 Rocket 4.5 22:00:02 10° WSW 22:02:16 14° W 22:04:30 10° WNW
Molniya-1 4.0 21:59:48 10° NNW 22:02:16 49° NE 22:03:06 37° E
Cosmos 1300 Rocket 4.5 21:59:04 10° SSW 22:03:14 48° WNW 22:07:26 10° N
MetOp-B 4.2 22:01:15 17° S 22:05:29 77° WSW 22:10:53 10° NNW
COSMOS 2428 3.6 22:04:15 26° SE 22:05:45 29° ESE 22:10:37 10° NE
Cosmos 1025 Rocket 3.4 22:02:31 10° NNW 22:06:45 62° W 22:09:50 18° S
NOSS 2-3 (E) 4.0 22:02:55 10° SW 22:07:44 90° ESE 22:13:34 10° NE
BREEZE-M DEB (TANK) 3.5 22:04:29 10° WSW 22:08:14 69° SSE 22:21:57 10° ENE
YAOGAN 11 4.0 22:06:33 30° SSE 22:08:39 72° ENE 22:12:59 10° N
CENTAUR R/B 4.1 22:03:30 10° NW 22:10:18 37° NNE 22:17:28 11° E
SeaSat 1 3.5 22:05:41 10° NNE 22:10:25 47° NW 22:15:08 10° SW
Cosmos 2360 Rocket 2.1 22:05:01 10° SSW 22:10:34 65° ESE 22:16:10 10° NNE
Cosmos 2315 Rocket 4.2 22:04:54 10° NNW 22:11:07 70° W 22:16:44 13° S
Cosmos 1437 Rocket 4.2 22:12:13 22° E 22:12:13 22° E 22:15:00 10° NE
Cosmos 1844 4.1 22:06:38 10° NNW 22:12:09 50° NE 22:14:57 28° ESE
Cosmos 1980 Rocket 4.4 22:07:36 10° WSW 22:12:19 27° NW 22:17:04 10° NNE
CARTOSAT-1 4.4 22:13:35 29° ESE 22:14:48 35° ENE 22:18:46 10° N
SPOT 1/Viking Rocket 3.5 22:12:34 28° SSE 22:15:23 74° ENE 22:20:37 10° NNW
SPOT 5 2.8 22:14:37 26° SSE 22:17:22 85° WSW 22:22:03 10° NNW
Cosmos 2333 Rocket 3.7 22:20:18 19° E 22:20:18 19° E 22:23:23 10° ENE
Lacrosse 5 1.8 22:19:04 10° SW 22:24:04 63° SE 22:29:06 10° ENE
H-2A R/B 3.3 22:27:11 26° E 22:28:03 28° ENE 22:31:48 10° N
USA 245 4.1 22:25:07 23° S 22:28:11 62° WSW 22:32:24 10° NNW
ERBS 4.2 22:25:53 10° W 22:29:03 32° NNW 22:32:14 10° NE
Nimbus 7 Rocket 4.5 22:24:02 10° NNE 22:29:49 57° ESE 22:32:37 30° SSE
Cosmos 1503 Rocket 4.3 22:26:39 10° NNW 22:31:58 58° ENE 22:33:53 37° ESE
USA 215 4.2 22:30:01 10° ENE 22:36:11 46° N 22:42:21 10° WNW
Cosmos 2237 Rocket 3.8 22:42:17 18° E 22:42:17 18° E 22:44:54 10° NE
Cosmos 1842 4.2 22:38:23 10° N 22:41:56 34° ENE 22:41:56 34° ENE
Cosmos 1745 Rocket 3.9 22:40:34 34° SSE 22:43:15 65° E 22:49:21 10° NNE
Cosmos 1666 3.4 22:46:46 40° ENE 22:46:46 40° ENE 22:49:52 10° NNE
Cosmos 1066 Rocket 4.3 22:41:05 10° NNW 22:46:27 67° W 22:49:00 32° S
Cosmos 1626 Rocket 3.6 22:42:21 10° N 22:46:37 57° ENE 22:47:04 54° ESE
BREEZE-M DEB (TANK) 4.4 22:24:38 10° SW 22:47:36 68° SSE 22:52:19 13° ENE
Cosmos 1892 Rocket 4.2 22:43:24 10° NNW 22:47:45 53° W 22:49:24 33° SSW
NOSS 3-2 (A) 3.9 22:42:33 10° NW 22:49:56 87° SW 22:53:41 36° SE
USA 238 DEB 4.2 22:43:50 10° NW 22:50:42 54° WSW 22:53:57 31° S
USA 238 4.2 22:43:56 10° NW 22:50:48 55° WSW 22:54:03 32° S
Abrixas rocket 3.4 22:50:01 10° W 22:52:12 36° WSW 22:52:12 36° WSW
H-2A R/B 2.6 22:51:08 29° SSW 22:53:28 51° W 22:58:20 10° NNW
Landsat 7 3.9 22:52:08 45° S 22:53:33 73° WSW 22:58:20 10° NNW
Meteor 1-21 4.2 22:50:41 10° N 22:56:19 75° ENE 22:57:56 48° SSE
Cosmos 1743 2.6 22:58:08 76° NE 22:58:08 76° NE 23:01:46 10° NNE
Cosmos 1975 3.4 22:59:02 38° SW 23:00:12 54° WNW 23:04:09 10° N
GP-B 3.0 22:58:58 10° N 23:03:27 72° E 23:03:42 69° ESE
Cosmos 405 4.1 23:03:31 35° WSW 23:04:20 41° WNW 23:07:47 10° N
Cosmos 724 4.2 22:59:09 10° NW 23:05:05 79° SW 23:06:38 51° SSE
SL-8 R/B 4.4 23:01:09 10° W 23:05:21 38° SW 23:05:21 38° SW
Cosmos 1544 Rocket 4.0 23:05:25 38° SW 23:06:55 59° WNW 23:11:21 10° N
Terra 1.8 23:07:58 56° SSW 23:08:53 74° WSW 23:13:40 10° NNW
ATLAS 3B R/B 3.6 23:04:05 10° NW 23:10:04 35° WSW 23:12:35 26° SSW
Cosmos 1386 Rocket 4.4 23:09:16 43° S 23:11:28 82° E 23:17:48 10° N
Cosmos 2278 Rocket 2.2 23:10:12 10° NNW 23:15:54 75° ENE 23:17:05 56° SE
Cosmos 1241 Rocket 4.4 23:13:46 23° SSW 23:18:07 81° SE 23:24:37 10° NE
Cosmos 1302 Rocket 4.4 23:15:40 24° SW 23:18:48 64° WNW 23:24:04 10° NNE
Cosmos 1455 Rocket 3.8 23:18:20 37° SW 23:19:38 50° WNW 23:24:00 10° N
ATLAS CENTAUR R/B 3.0 23:18:48 10° NNW 23:21:46 22° NE 23:22:08 21° NE
Cosmos 1992 Rocket 4.2 23:23:21 52° E 23:23:21 52° E 23:28:06 10° NNE
Cosmos 1844 Rocket 3.4 23:18:34 10° NW 23:23:55 43° WSW 23:25:19 36° SW
NOSS 3-2 (C) 4.0 23:20:21 10° NW 23:27:44 72° SW 23:30:21 46° SSE
IGS 5A 4.3 23:31:35 41° WSW 23:31:42 41° W 23:35:40 10° NNW
Cosmos 968 Rocket 3.4 23:27:02 10° NNW 23:32:10 68° ENE 23:32:31 66° E
Aureole 2 Rocket 4.2 23:35:04 27° NNE 23:35:04 27° NNE 23:36:40 10° NNE
DELTA 2 DEB (DPAF) 4.2 23:34:18 72° NE 23:34:18 72° NE 23:38:36 10° N
Spot 4 3.7 23:34:41 80° SW 23:34:51 82° WSW 23:39:40 10° NNW
Meteor 2-5 Rocket 4.4 23:32:39 10° N 23:38:14 42° ENE 23:39:04 40° E
EXPRESS MD2 4.3 23:34:15 10° W 23:38:26 82° N 23:47:33 10° E
Meteor 2-9 Rocket 4.1 23:37:48 65° S 23:38:42 85° E 23:44:23 10° NNE
Cosmos 2219 Rocket 2.1 23:39:32 62° SSW 23:40:34 88° ESE 23:46:16 10° NNE
CZ-4C R/B 4.3 23:42:20 39° N 23:42:20 39° N 23:44:40 10° N
CZ-2C R/B 3.6 23:37:43 10° NNE 23:42:03 34° E 23:42:03 34° E
Cosmos 2181 Rocket 4.0 23:37:13 10° N 23:43:43 90° WNW 23:45:02 60° S
COSMOS 2455 3.4 23:38:27 10° NNW 23:44:21 52° NE 23:45:53 42° E
ALOS 2 3.7 23:46:53 35° NE 23:46:53 35° NE 23:50:31 10° N
Cosmos 1437 Rocket 4.1 23:47:38 33° W 23:47:58 34° WNW 23:51:37 10° N
SL-16 R/B 3.6 23:49:33 25° E 23:49:33 25° E 23:52:50 10° NE
ATLAS 2AS CENTAUR R/B 3.9 23:41:08 10° WSW 23:48:48 49° NW 23:56:41 10° NE
RESURS DK-1 4.5 23:51:32 18° NE 23:51:32 18° NE 23:52:51 10° NE
COSMOS 2428 3.3 23:46:11 23° SW 23:49:43 54° NW 23:55:22 10° NNE
Cosmos 1709 Rocket 3.9 23:49:58 58° SSW 23:51:17 83° W 23:57:35 10° N
Cosmos 2360 Rocket 4.1 23:50:14 10° WSW 23:55:02 28° NW 23:59:51 10° NNE
